Flag for Canada Weather past 2 weeks in Nanaimo, British Columbia, Canada

Now
52 °F

Cool.


Feels Like: 52 °F
Forecast: 46 / 59 °F
Wind: 2 mph from South

Location: Entrance Island

Current Time: Apr 21, 2015 at 8:11:59 AM

Latest Report: Apr 21, 2015 at 7:00 AM


Visibility: N/A

Pressure: 29.86 "Hg

Humidity: 83%

Dew point: 47 °F

Location of NanaimoLocation

Historic Weather in Nanaimo — Graph

°F

Nanaimo temperature yesterday

Maximum temperature yesterday: 61 °F (at 6:00 PM)
Minimum temperature yesterday: 53 °F (at 10:00 AM)
Average temperature yesterday: 55 °F

Past Weeks' High & Low Weather Summary

 TemperatureHumidityPressure
High61 °F (Apr 20, 6:00 PM)95% (Apr 7, 4:00 AM)30.53 "Hg (Apr 7, 4:00 AM)
Low42 °F (Apr 7, 4:00 AM)41% (Apr 11, 5:00 PM)29.66 "Hg (Apr 10, 8:00 PM)
Average50 °F70%30.08 "Hg
* Reported Apr 6 7:00 AM — Apr 21 7:00 AM, Nanaimo, Weather by CustomWeather, © 2015

Note: Actual official high and low records may vary slightly from our data, if they occured in-between our weather recording intervals... More about our weather records

Advertising

Nanaimo weather history for previous 24 hours

 ConditionsComfort  
Time TempWeatherWind HumidityBarometerVisibility
7:00 AM
Tue, Apr 21
52 °FCool.2 mph83%29.86 "HgN/A
6:00 AM52 °FCool.3 mph81%29.85 "HgN/A
5:00 AM52 °FCool.6 mph77%29.85 "HgN/A
4:00 AM53 °FCool.8 mph81%29.84 "HgN/A
3:00 AM52 °FCool.6 mph78%29.83 "HgN/A
2:00 AM53 °FCool.No wind76%29.83 "HgN/A
1:00 AM54 °FCool.5 mph71%29.83 "HgN/A
12:00 AM55 °FCool.No wind68%29.83 "HgN/A
11:00 PM
Mon, Apr 20
55 °FCool.3 mph72%29.82 "HgN/A
10:00 PM55 °FCool.2 mph71%29.83 "HgN/A
9:00 PM58 °FRefreshingly cool.No wind60%29.82 "HgN/A
8:00 PM60 °FRefreshingly cool.2 mph50%29.82 "HgN/A
7:00 PM60 °FRefreshingly cool.2 mph55%29.83 "HgN/A
6:00 PM61 °FRefreshingly cool.3 mph50%29.84 "HgN/A
5:00 PM61 °FRefreshingly cool.3 mph52%29.85 "HgN/A
4:00 PM59 °FRefreshingly cool.3 mph58%29.87 "HgN/A
3:00 PM57 °FCool.3 mph62%29.90 "HgN/A
2:00 PM55 °FCool.8 mph68%29.92 "HgN/A
1:00 PM53 °FCool.10 mph72%29.93 "HgN/A
12:00 PM53 °FCool.12 mph68%29.95 "HgN/A
11:00 AM53 °FCool.15 mph72%29.96 "HgN/A
10:00 AM53 °FCool.14 mph69%29.96 "HgN/A
9:00 AM53 °FCool.14 mph71%29.97 "HgN/A
8:00 AM53 °FCool.15 mph67%29.97 "HgN/A
Weather by CustomWeather, © 2015

See weather overviewHow to use our weather pages